Powrót do katalogu

STARLINK-3681

AktywnyŁącznośćVLEO
NORAD 51968·PAYLOAD·🇺🇸 United States

Wystrzelony Mar 9, 2022 z Cape Canaveral Space Force Station

Loading…

Następne Przeloty (najbliższe 24 godziny)

TLE

ŚwieżeSource: CelesTrak SupGP

Epoka: Sep 15, 2026, 01:14 UTC

1 51968C 22025N   26258.05187500 -.00034847  00000+0 -11206-2 0  2586
2 51968  53.1597 223.0325 0001350  92.2359 296.7970 15.31720350    15

Śledź STARLINK-3681 w czasie rzeczywistym z AllMySat

Download on the App Store